COSMOS 1275 DEB, 13816

Orbit data source: Space-Track

COSMOS 1275 DEB, 13816 is space debris in LEO originally from a launch on Thu, 04 Jun 1981 UTC launched from the Plesetsk Missile And Space Complex (PKMTR). Debris objects in space refer to the collection of defunct objects orbiting the Earth. Examples of debris include non-operational satellites, rocket bodies, and fragments generated from explosions, collisions, or faulty payload assembly.

Loading next visibility...
Identifier
13816, 1981-053HL
Orbit
LEO
Country
Flag of CISCIS
Related business
Manufacturer
Unknown
Mission
Spacecraft
Bus & Motor
Unknown
Mass
Unknown
Launch date (UTC)
1981-06-04 (44 years ago)
Launch vehicle
Unknown
Launch site
Plesetsk Missile And Space Complex (PKMTR)
Object type
Payload
Rocket body
Debris
Shape & HBR
Unknown shape, 0.1 m
Radar Cross Section
Small (<0.1 m²)

Expand to show TLE details & history
Last TLE update: 8 hours ago

TLE from 8 hours ago
0 COSMOS 1275 DEB
1 13816U 81053HL  25286.88255737  .00001028  00000-0  77673-3 0  9998
2 13816  82.9827 257.4417 0158062 167.2090 221.7854 13.87521793126110
Epoch: 2025-10-13T21:10Z
TLE epoch observation values (Epoch: 2025-10-13T21:10:52.956Z)
Latitude
27.61781°
Longitude
-79.2846°
Altitude
1,027.758 km
Speed
7.297 km/s
True Right ascension
17h 24m 27s
True Declination
27° 28' 55"
Sunlit
Object was in daylight at epoch
Visualization orbit readout
Latitude
Unknown
Longitude
Unknown
Altitude
Unknown
Speed
Unknown
Apparent Right ascension
Unknown
Apparent Declination
Unknown
Sunlit
N/A
Visualization observer readout
Local Sidereal Time
23:45:38
Azimuth
Unknown
Elevation
Unknown
Doppler factor
Unknown
Orbital elements
Apogee altitude
1,050.042 km
Perigee altitude
818.873 km
Semi-major axis
7,312.594 km
Eccentricity
0.01581
Inclination
82.9827°
RAAN
257.4417°
Arg. of periapsis
167.209°
True anomaly
220.5961°
Mean anomaly
221.7854°
Eccentric anomaly
221.189°
Mean motion
3.47085 °/min
Orbital period
103.72 mins
BSTAR
0.00077673
Loading maneuver chart data...
Computing Atmospheric mass density...
Loading historical data...
Loading historical data...
Loading historical data...
Loading historical data...
Loading historical data...
Loading historical data...
Loading historical data...

Documentation

Showing up to 5 results
|